Regional Weather Roundup
Issued by NWS Sterling, VA

Home | Current Version | Previous Version | Text Only | Print | Product List | Glossary On
Versions: 1 2 3 4 5 6 7 8 9 10 11 12 13 14 15 16 17 18 19 20 21 22 23 24 25 26 27
000
ASUS41 KLWX 290811
RWRLWX

REGIONAL WEATHER ROUNDUP
NATIONAL WEATHER SERVICE BALTIMORE MD/WASHINGTON DC
400 AM EDT MON MAY 29 2017

Note: "FAIR" indicates few or no clouds below 12,000 feet
with no significant weather and/or obstructions to visibility.
 TC=TEMPERATURE CELSIUS

 * =Non NWS site. Station does not report precipitation (e.g. rain,
    snow, etc.), thunder, or fog.

DCZ001-MDZ009-015-VAZ040>042-051-053>054-290900-
WASHINGTON METRO

CITY           SKY/WX    TMP DP  RH WIND       PRES   REMARKS
WASHINGTON NAT CLOUDY    65  64  97 NE3       29.81F FOG
DULLES         DRIZZLE   64  63  96 E5        29.80F FOG
ANDREWS AFB    CLOUDY    63  63 100 NE3       29.80S FOG
FT BELVOIR     CLOUDY    64  63  94 CALM      29.80F FOG
QUANTICO       CLOUDY    66  66 100 N3        29.81S FOG
COLLEGE PARK*  CLOUDY    61  60  97 CALM      29.81F
LEESBURG*      CLOUDY    64  64 100 SE3       29.82F FOG
MANASSAS*      FOG       65  65 100 E3        29.81S VSB 1/2
GAITHERSBURG*  CLOUDY    61  60  97 CALM      29.81F FOG

$$

MDZ006>007-011-014-290900-
BALTIMORE METRO

CITY           SKY/WX    TMP DP  RH WIND       PRES   REMARKS
BWI AIRPORT    CLOUDY    62  62 100 E3        29.81R
MD SCIENCE CTR   N/A     64  62  93 MISG      29.82R
MARTIN STATE   HVY RAIN  63  63 100 CALM      29.83S
ANNAPOLIS      CLOUDY    65  63  93 N3        29.80R
FORT MEADE*    CLOUDY    61  59  94 CALM      29.84F

$$

MDZ012-015-019>023-290900-
MARYLAND EASTERN SHORE

CITY           SKY/WX    TMP DP  RH WIND       PRES   REMARKS
OCEAN CITY     CLOUDY    61  60  97 NW5       29.78R FOG
SALISBURY      CLOUDY    62  62 100 W3        29.78R
BAY BRIDGE AP* CLOUDY    61  61 100 N3        29.81R
CAMBRIDGE*     CLOUDY    63  61  94 N7        29.80R
EASTON*        CLOUDY    63  60  92 CALM      29.84R

$$

MDZ017>025-290900-
SOUTHERN MARYLAND

CITY           SKY/WX    TMP DP  RH WIND       PRES   REMARKS
PATUXENT RIVER CLOUDY    64  64 100 NW9       29.79R
ST INIGOES     CLOUDY    65  64  97 NW5       29.79S
LEONARDTOWN*   CLOUDY    63  61  94 CALM      29.82R

$$

MDZ003>005-290900-
NORTH CENTRAL MARYLAND

CITY           SKY/WX    TMP DP  RH WIND       PRES   REMARKS
FREDERICK*     CLOUDY    64  64 100 SE3       29.83F FOG
HAGERSTOWN APT CLOUDY    64  63  96 S3        29.80F FOG
WESTMINSTER*   CLOUDY    61  61 100 SE3       29.82S

$$

MDZ501>502-290900-
WESTERN MARYLAND

CITY           SKY/WX    TMP DP  RH WIND       PRES   REMARKS
OAKLAND*       CLOUDY    59  59 100 SW6G18    29.86S FOG
CUMBERLAND*    CLOUDY    64  64 100 S3        29.84R

$$

VAZ025>031-290900-
SHENANDOAH VALLEY

CITY           SKY/WX    TMP DP  RH WIND       PRES   REMARKS
WINCHESTER*    FOG       61  61 100 CALM      29.80S VSB 1
FRONT ROYAL*   CLOUDY    63  63 100 S3        29.80S
LURAY*         CLOUDY    64  64 100 SW3       29.81F
NEW MARKET*    CLOUDY    65  64  95 CALM      29.80F
STAUNTON*      FOG       62  62  99 CALM      29.84F VSB 1/4
WAYNESBORO*    CLOUDY    60  60 100 CALM      29.84F

$$

WVZ021-048>050-054>055-290900-
EASTERN WEST VIRGINIA PANHANDLE

CITY           SKY/WX    TMP DP  RH WIND       PRES   REMARKS
MARTINSBURG    LGT RAIN  63  62  97 CALM      29.79F FOG
PETERSBURG*    CLEAR     64  62  94 CALM      29.82S

$$

VAZ036>039-050-290900-
CENTRAL FOOTHILLS

CITY           SKY/WX    TMP DP  RH WIND       PRES   REMARKS
CHARLOTTESVILL FOG       66  65  96 CALM      29.81F VSB 3/4
CULPEPER*      FOG       66  66 100 CALM      29.82F VSB 1/2
ORANGE*        CLOUDY    64  64 100 CALM      29.82S FOG
GORDONSVILLE*  CLOUDY    65  65 100 SW3       29.81F FOG
WARRENTON*     FOG       66  64  91 CALM      29.80F VSB 1/4

$$

VAZ055>057-290900-
NORTH AND CENTRAL PIEDMONT

CITY           SKY/WX    TMP DP  RH WIND       PRES   REMARKS
FREDERICKSBRG* CLOUDY    67  67 100 CALM      29.80F FOG
STAFFORD*      FOG       65  65 100 CALM      29.85R VSB 1/2

$$

NCZ024-NYZ072-PAZ021-071-VAZ022-071-290900-
OTHER REGIONAL OBSERVATIONS

CITY           SKY/WX    TMP DP  RH WIND       PRES   REMARKS
NEW YORK CITY  CLOUDY    58  54  86 E7        29.90F
PHILADELPHIA   CLOUDY    59  57  93 NE9       29.83R
PITTSBURGH     LGT RAIN  63  63 100 SW5       29.80R
ROANOKE        CLEAR     67  60  78 W9        29.89S
RICHMOND       PTCLDY    69  67  93 NW6       29.80S FOG
RALEIGH        PTCLDY    69  63  81 CALM      29.86S

$$

ANZ530>537-290900-
MARINE OBSERVATIONS

STATION/POSITION TIME  TEMP    WIND        PRES
                       AIR SEA DIR/SP/G
                 (UTC) (F)     (DEG/KT/KT) (MB)
THOMAS PT LIGHT  0800   63 65  360/  6/  7   N/A
BALT KEY BRIDGE  0736   63      40/  4/  4   N/A
COVE POINT       0736   63     360/  6/  8   N/A
LEWISETTA        0736   65 70  360/  4/  5   N/A
SOLOMONS ISLAND  0736   64 68  340/  6/  8   N/A
PINEY POINT      0748          350/  8/  8   N/A

$$





USA.gov is the U.S. government's official web portal to all federal, state and local government web resources and services.